COSMOS 2251 DEB

Satellite information

Favourite Embed

Satellite Type and Status

DEBRISIN ORBIT

Key statistics

Satellite COSMOS 2251 DEB at a glance.

Uptime

11654

Days in orbit

Revolutions

≈ 14.9

Per day

Orbit

LEO

Low Earth Orbit

Inclination

74.0

Latest

Satellite identification and parameters

Extended collection of information and parameters for COSMOS 2251 DEB.

Object identification

Identified? True

Debris? True

Object name: COSMOS 2251 DEB

International designator: 1993-036AXJ

Object number (NORAD): 36047

Object ID (CCSDS): 36047

Country: COMMONWEALTH OF INDEPENDENT STATES (CIS)

Current information (Y/N): Y

RCS size: SMALL

Orbital parameters

Period: 96.91 minutes

Inclination: 74.0408 deg

SMA: 6988.836 km

Apoapsis: 621.821 km

Periapsis: 599.58 km

RAAN: 43.3506 deg

Eccentricy: 0.0015912

Argument of periapsis: 185.1862 deg

Mean anomaly: 174.9155 deg

Mean motion: 14.85920359 rev/day

Mean motion (dot): 0.00013357 rev/day2

B* drag term: 0.0015287 1/REarth

Two-line elements (TLE)

Creation date: May 12, 2025, 7:41 p.m.

Reference frame: TEME

Reference center: EARTH

Epoch: May 12, 2025, 4:20 a.m. UTC

TLE line 0: 0 COSMOS 2251 DEB

TLE line 1: 1 36047U 93036AXJ 25132.18069913 .00013357 00000-0 15287-2 0 9995

TLE line 2: 2 36047 74.0408 43.3506 0015912 185.1862 174.9155 14.85920359627446

Live tracking on map

Real-time ground track for satellite COSMOS 2251 DEB.

In-orbit conjunctions

A list of the most updated potential collisions computed for object COSMOS 2251 DEB.

Target Orbit TCA Probability of collision Miss distance Type
METEOR 2-5 DEB LEO 2024-11-14 12:09:05 0.0002620626 113.0 (m) DEBRIS

Associated space launch

Military communications satellite. Destroyed in a collision with Iridium 33.

COSMOS 2251 DEB was lifted into orbit during the mission ‘Kosmos-3M | Strela-2M 51’, on board a Kosmos-3M space rocket.

The launch took place on June 16, 1993, 4:17 a.m. from 132/1 (132L).

For more information about the launch, click the button.

Launch to space Kosmos-3M | Strela-2M 51
Kosmos-3M | Strela-2M 51

Agency: N/A

Status: Launch Successful

Launch date: June 16, 1993, 4:17 a.m. UTC

Rocket: Kosmos-3M

Launch pad: 132/1 (132L)

Location: Plesetsk Cosmodrome, Russian Federation

...

Latest news about this satellite

There are no fresh news available about this satellite. Check back as we update our databases every day.


Newsletter sign-up

Weekly statistics, charts and insights to help you stay on top of the space industry.